| time (UTC) | temp F | wind direction | speed MPH | gust MPH | rain 1hr in | rain 24hr in | rain mn in | humidity % | barometer mb |
| 20260901234010 | 90 | 178 | 0.0 | 3.0 | 0.00 | 0.00 | 0.00 | 71 | 1012.1 |
| 20260901233514 | 91 | 186 | 0.0 | 3.0 | 0.00 | 0.00 | 0.00 | 70 | 1012.1 |
| 20260901233010 | 91 | 195 | 0.0 | 4.0 | 0.00 | 0.00 | 0.00 | 70 | 1012.1 |
| 20260901232510 | 91 | 202 | 1.0 | 4.0 | 0.00 | 0.00 | 0.00 | 69 | 1012.0 |
| 20260901232010 | 91 | 180 | 0.0 | 4.0 | 0.00 | 0.00 | 0.00 | 68 | 1012.0 |
| 20260901231515 | 92 | 188 | 1.0 | 5.0 | 0.00 | 0.00 | 0.00 | 66 | 1012.1 |
| 20260901231013 | 92 | 207 | 2.0 | 6.0 | 0.00 | 0.00 | 0.00 | 66 | 1012.0 |
| 20260901230509 | 93 | 198 | 2.0 | 6.0 | 0.00 | 0.00 | 0.00 | 65 | 1012.0 |
| 20260901230010 | 93 | 195 | 2.0 | 6.0 | 0.00 | 0.00 | 0.00 | 65 | 1012.0 |
| 20260901225508 | 93 | 190 | 2.0 | 5.0 | 0.00 | 0.00 | 0.00 | 64 | 1012.0 |
| 20260901225008 | 94 | 183 | 2.0 | 5.0 | 0.00 | 0.00 | 0.00 | 64 | 1011.9 |
| 20260901224514 | 94 | 229 | 1.0 | 5.0 | 0.00 | 0.00 | 0.00 | 63 | 1011.9 |
| 20260901224010 | 94 | 202 | 1.0 | 6.0 | 0.00 | 0.00 | 0.00 | 64 | 1011.9 |
| 20260901223508 | 94 | 191 | 2.0 | 7.0 | 0.00 | 0.00 | 0.00 | 61 | 1011.9 |
| 20260901223008 | 94 | 213 | 3.0 | 7.0 | 0.00 | 0.00 | 0.00 | 60 | 1012.0 |
| 20260901222511 | 94 | 212 | 3.0 | 7.0 | 0.00 | 0.00 | 0.00 | 61 | 1011.9 |
| 20260901222007 | 94 | 192 | 3.0 | 6.0 | 0.00 | 0.00 | 0.00 | 61 | 1012.0 |
| 20260901221518 | 94 | 198 | 2.0 | 6.0 | 0.00 | 0.00 | 0.00 | 62 | 1012.0 |
| 20260901221009 | 94 | 219 | 3.0 | 6.0 | 0.00 | 0.00 | 0.00 | 62 | 1012.0 |
| 20260901220506 | 95 | 181 | 3.0 | 6.0 | 0.00 | 0.00 | 0.00 | 62 | 1012.1 |
| 20260901220007 | 94 | 199 | 3.0 | 7.0 | 0.00 | 0.00 | 0.00 | 60 | 1012.0 |
| 20260901215507 | 94 | 200 | 3.0 | 8.0 | 0.00 | 0.00 | 0.00 | 60 | 1011.9 |
| 20260901215007 | 95 | 180 | 3.0 | 8.0 | 0.00 | 0.00 | 0.00 | 59 | 1012.0 |
| 20260901214506 | 95 | 209 | 4.0 | 7.0 | 0.00 | 0.00 | 0.00 | 59 | 1011.9 |
| 20260901214009 | 95 | 207 | 4.0 | 8.0 | 0.00 | 0.00 | 0.00 | 62 | 1011.9 |
| 20260901213506 | 95 | 211 | 5.0 | 8.0 | 0.00 | 0.00 | 0.00 | 58 | 1011.9 |
| 20260901213005 | 95 | 182 | 4.0 | 8.0 | 0.00 | 0.00 | 0.00 | 61 | 1011.9 |
| 20260901212504 | 95 | 197 | 4.0 | 7.0 | 0.00 | 0.00 | 0.00 | 59 | 1012.0 |
| 20260901212009 | 95 | 176 | 4.0 | 9.0 | 0.00 | 0.00 | 0.00 | 62 | 1012.1 |
| 20260901211504 | 95 | 185 | 4.0 | 9.0 | 0.00 | 0.00 | 0.00 | 61 | 1012.1 |
| 20260901211004 | 95 | 168 | 5.0 | 8.0 | 0.00 | 0.00 | 0.00 | 59 | 1012.0 |
| 20260901210503 | 96 | 246 | 5.0 | 8.0 | 0.00 | 0.00 | 0.00 | 60 | 1012.1 |
| 20260901210003 | 96 | 215 | 3.0 | 8.0 | 0.00 | 0.00 | 0.00 | 62 | 1012.1 |
| 20260901205502 | 95 | 234 | 2.0 | 7.0 | 0.00 | 0.00 | 0.00 | 56 | 1012.1 |
| 20260901205004 | 95 | 229 | 4.0 | 7.0 | 0.00 | 0.00 | 0.00 | 61 | 1012.1 |
| 20260901204502 | 95 | 205 | 5.0 | 9.0 | 0.00 | 0.00 | 0.00 | 63 | 1012.2 |
| 20260901204001 | 95 | 188 | 5.0 | 9.0 | 0.00 | 0.00 | 0.00 | 62 | 1012.2 |
| 20260901203501 | 95 | 174 | 4.0 | 9.0 | 0.00 | 0.00 | 0.00 | 64 | 1012.1 |
| 20260901203001 | 95 | 203 | 4.0 | 11.0 | 0.00 | 0.00 | 0.00 | 63 | 1012.1 |
| 20260901202501 | 95 | 196 | 5.0 | 11.0 | 0.00 | 0.00 | 0.00 | 62 | 1012.2 |
| 20260901202002 | 95 | 225 | 6.0 | 10.0 | 0.00 | 0.00 | 0.00 | 64 | 1012.2 |
| 20260901201600 | 95 | 206 | 4.0 | 9.0 | 0.00 | 0.00 | 0.00 | 63 | 1012.2 |
| 20260901201100 | 95 | 225 | 4.0 | 9.0 | 0.00 | 0.00 | 0.00 | 62 | 1012.2 |
| 20260901200559 | 95 | 187 | 5.0 | 9.0 | 0.00 | 0.00 | 0.00 | 64 | 1012.3 |
| 20260901200105 | 95 | 227 | 5.0 | 10.0 | 0.00 | 0.00 | 0.00 | 63 | 1012.3 |
| 20260901195600 | 95 | 235 | 4.0 | 10.0 | 0.00 | 0.00 | 0.00 | 63 | 1012.3 |
| 20260901195058 | 95 | 253 | 4.0 | 9.0 | 0.00 | 0.00 | 0.00 | 64 | 1012.3 |
| 20260901194606 | 95 | 226 | 5.0 | 9.0 | 0.00 | 0.00 | 0.00 | 63 | 1012.3 |
| 20260901194058 | 95 | 207 | 5.0 | 9.0 | 0.00 | 0.00 | 0.00 | 64 | 1012.3 |
| 20260901193557 | 95 | 200 | 2.0 | 7.0 | 0.00 | 0.00 | 0.00 | 67 | 1012.4 |
| 20260901193059 | 95 | 182 | 4.0 | 10.0 | 0.00 | 0.00 | 0.00 | 66 | 1012.4 |
| 20260901192556 | 95 | 186 | 5.0 | 9.0 | 0.00 | 0.00 | 0.00 | 65 | 1012.5 |
| 20260901192055 | 94 | 200 | 4.0 | 9.0 | 0.00 | 0.00 | 0.00 | 66 | 1012.5 |
| 20260901191602 | 94 | 206 | 5.0 | 10.0 | 0.00 | 0.00 | 0.00 | 65 | 1012.5 |
| 20260901191054 | 94 | 225 | 4.0 | 10.0 | 0.00 | 0.00 | 0.00 | 65 | 1012.6 |
| 20260901190554 | 94 | 220 | 4.0 | 10.0 | 0.00 | 0.00 | 0.00 | 65 | 1012.6 |
| 20260901190109 | 94 | 215 | 5.0 | 8.0 | 0.00 | 0.00 | 0.00 | 64 | 1012.6 |
| 20260901185556 | 94 | 204 | 4.0 | 8.0 | 0.00 | 0.00 | 0.00 | 66 | 1012.6 |
| 20260901185052 | 94 | 223 | 3.0 | 7.0 | 0.00 | 0.00 | 0.00 | 69 | 1012.6 |
| 20260901184552 | 94 | 168 | 3.0 | 9.0 | 0.00 | 0.00 | 0.00 | 68 | 1012.8 |
| 20260901184051 | 93 | 230 | 4.0 | 9.0 | 0.00 | 0.00 | 0.00 | 67 | 1012.8 |
| 20260901183549 | 93 | 243 | 4.0 | 9.0 | 0.00 | 0.00 | 0.00 | 68 | 1012.8 |
| 20260901183048 | 92 | 220 | 2.0 | 8.0 | 0.00 | 0.00 | 0.00 | 71 | 1012.8 |
| 20260901182549 | 92 | 206 | 4.0 | 8.0 | 0.00 | 0.00 | 0.00 | 70 | 1012.9 |
| 20260901182048 | 92 | 207 | 4.0 | 8.0 | 0.00 | 0.00 | 0.00 | 70 | 1012.9 |
| 20260901181548 | 92 | 180 | 3.0 | 10.0 | 0.00 | 0.00 | 0.00 | 69 | 1012.9 |
| 20260901181047 | 92 | 202 | 3.0 | 10.0 | 0.00 | 0.00 | 0.00 | 68 | 1012.9 |
| 20260901180547 | 92 | 205 | 3.0 | 7.0 | 0.00 | 0.00 | 0.00 | 69 | 1012.9 |
| 20260901180047 | 92 | 200 | 3.0 | 8.0 | 0.00 | 0.00 | 0.00 | 69 | 1013.0 |
| 20260901175546 | 92 | 173 | 3.0 | 8.0 | 0.00 | 0.00 | 0.00 | 70 | 1013.0 |
| 20260901175046 | 92 | 184 | 4.0 | 7.0 | 0.00 | 0.00 | 0.00 | 70 | 1013.0 |
| 20260901174552 | 92 | 184 | 2.0 | 6.0 | 0.00 | 0.00 | 0.00 | 70 | 1013.1 |
| 20260901174047 | 92 | 202 | 3.0 | 6.0 | 0.00 | 0.00 | 0.00 | 68 | 1013.1 |
| 20260901173546 | 92 | 242 | 3.0 | 6.0 | 0.00 | 0.00 | 0.00 | 71 | 1013.1 |
| 20260901173045 | 92 | 216 | 3.0 | 6.0 | 0.00 | 0.00 | 0.00 | 70 | 1013.2 |
| 20260901172547 | 92 | 161 | 0.0 | 7.0 | 0.00 | 0.00 | 0.00 | 71 | 1013.3 |
| 20260901172044 | 91 | 220 | 3.0 | 7.0 | 0.00 | 0.00 | 0.00 | 70 | 1013.4 |
| 20260901171546 | 91 | 217 | 3.0 | 7.0 | 0.00 | 0.00 | 0.00 | 71 | 1013.4 |
| 20260901171042 | 91 | 207 | 3.0 | 7.0 | 0.00 | 0.00 | 0.00 | 71 | 1013.4 |
| 20260901170542 | 91 | 216 | 2.0 | 7.0 | 0.00 | 0.00 | 0.00 | 71 | 1013.4 |
| 20260901170040 | 91 | 289 | 3.0 | 5.0 | 0.00 | 0.00 | 0.00 | 69 | 1013.5 |
| 20260901165539 | 91 | 171 | 1.0 | 5.0 | 0.00 | 0.00 | 0.00 | 70 | 1013.5 |
| 20260901165043 | 90 | 259 | 3.0 | 7.0 | 0.00 | 0.00 | 0.00 | 71 | 1013.5 |
| 20260901164542 | 90 | 250 | 2.0 | 7.0 | 0.00 | 0.00 | 0.00 | 71 | 1013.5 |
| 20260901164039 | 90 | 234 | 3.0 | 9.0 | 0.00 | 0.00 | 0.00 | 72 | 1013.5 |
| 20260901163535 | 89 | 220 | 3.0 | 9.0 | 0.00 | 0.00 | 0.00 | 74 | 1013.5 |
| 20260901163036 | 89 | 228 | 3.0 | 6.0 | 0.00 | 0.00 | 0.00 | 74 | 1013.5 |
| 20260901162535 | 89 | 231 | 3.0 | 6.0 | 0.00 | 0.00 | 0.00 | 73 | 1013.5 |
| 20260901162035 | 89 | 217 | 2.0 | 7.0 | 0.00 | 0.00 | 0.00 | 72 | 1013.5 |
| 20260901161535 | 89 | 244 | 2.0 | 7.0 | 0.00 | 0.00 | 0.00 | 73 | 1013.5 |
| 20260901161034 | 89 | 238 | 3.0 | 7.0 | 0.00 | 0.00 | 0.00 | 72 | 1013.6 |
| 20260901160535 | 89 | 165 | 2.0 | 8.0 | 0.00 | 0.00 | 0.00 | 74 | 1013.7 |
| 20260901160033 | 89 | 263 | 2.0 | 8.0 | 0.00 | 0.00 | 0.00 | 74 | 1013.6 |
| 20260901155530 | 88 | 217 | 2.0 | 8.0 | 0.00 | 0.00 | 0.00 | 74 | 1013.6 |
| 20260901155029 | 88 | 219 | 2.0 | 8.0 | 0.00 | 0.00 | 0.00 | 73 | 1013.6 |
| 20260901154530 | 88 | 199 | 3.0 | 7.0 | 0.00 | 0.00 | 0.00 | 73 | 1013.5 |
| 20260901154031 | 87 | 264 | 2.0 | 7.0 | 0.00 | 0.00 | 0.00 | 74 | 1013.6 |
| 20260901153529 | 87 | 213 | 2.0 | 6.0 | 0.00 | 0.00 | 0.00 | 74 | 1013.5 |
| 20260901153032 | 86 | 224 | 2.0 | 6.0 | 0.00 | 0.00 | 0.00 | 76 | 1013.5 |
| 20260901152523 | 86 | 213 | 3.0 | 7.0 | 0.00 | 0.00 | 0.00 | 74 | 1013.4 |
| 20260901152022 | 85 | 246 | 4.0 | 7.0 | 0.00 | 0.00 | 0.00 | 74 | 1013.5 |
| 20260901151522 | 85 | 236 | 3.0 | 7.0 | 0.00 | 0.00 | 0.00 | 76 | 1013.6 |
| 20260901151026 | 84 | 205 | 3.0 | 7.0 | 0.00 | 0.00 | 0.00 | 75 | 1013.6 |
| 20260901150521 | 84 | 235 | 2.0 | 7.0 | 0.00 | 0.00 | 0.00 | 74 | 1013.6 |
| 20260901150029 | 85 | 173 | 3.0 | 7.0 | 0.00 | 0.00 | 0.00 | 75 | 1013.5 |
| 20260901145520 | 84 | 249 | 3.0 | 7.0 | 0.00 | 0.00 | 0.00 | 76 | 1013.5 |
| 20260901145020 | 84 | 221 | 4.0 | 10.0 | 0.00 | 0.00 | 0.00 | 73 | 1013.5 |
| 20260901144519 | 84 | 223 | 3.0 | 10.0 | 0.00 | 0.00 | 0.00 | 75 | 1013.5 |
| 20260901144019 | 84 | 232 | 2.0 | 6.0 | 0.00 | 0.00 | 0.00 | 76 | 1013.4 |
| 20260901143516 | 83 | 260 | 2.0 | 7.0 | 0.00 | 0.00 | 0.00 | 79 | 1013.5 |
| 20260901143016 | 83 | 293 | 3.0 | 7.0 | 0.00 | 0.00 | 0.00 | 76 | 1013.5 |
| 20260901142515 | 83 | 219 | 3.0 | 7.0 | 0.00 | 0.00 | 0.00 | 76 | 1013.5 |
| 20260901142014 | 83 | 252 | 3.0 | 8.0 | 0.00 | 0.00 | 0.00 | 77 | 1013.5 |
| 20260901141515 | 82 | 223 | 4.0 | 8.0 | 0.00 | 0.00 | 0.00 | 76 | 1013.4 |
| 20260901141016 | 82 | 232 | 2.0 | 8.0 | 0.00 | 0.00 | 0.00 | 79 | 1013.4 |
| 20260901140511 | 82 | 229 | 3.0 | 8.0 | 0.00 | 0.00 | 0.00 | 78 | 1013.5 |
| 20260901140019 | 81 | 225 | 3.0 | 8.0 | 0.00 | 0.00 | 0.00 | 78 | 1013.6 |
| 20260901135510 | 81 | 196 | 2.0 | 7.0 | 0.00 | 0.00 | 0.00 | 80 | 1013.6 |
| 20260901135012 | 81 | 214 | 3.0 | 7.0 | 0.00 | 0.00 | 0.00 | 79 | 1013.6 |
| 20260901134511 | 81 | 227 | 2.0 | 5.0 | 0.00 | 0.00 | 0.00 | 81 | 1013.6 |
| 20260901134006 | 80 | 209 | 1.0 | 6.0 | 0.00 | 0.00 | 0.00 | 83 | 1013.6 |
| 20260901133505 | 79 | 216 | 2.0 | 7.0 | 0.00 | 0.00 | 0.00 | 82 | 1013.6 |
| 20260901133010 | 79 | 209 | 3.0 | 7.0 | 0.00 | 0.00 | 0.00 | 82 | 1013.6 |
| 20260901132504 | 79 | 207 | 2.0 | 5.0 | 0.00 | 0.00 | 0.00 | 83 | 1013.7 |
| 20260901132003 | 79 | 186 | 1.0 | 5.0 | 0.00 | 0.00 | 0.00 | 83 | 1013.7 |
| 20260901131502 | 78 | 178 | 1.0 | 7.0 | 0.00 | 0.00 | 0.00 | 84 | 1013.7 |
| 20260901131001 | 78 | 226 | 3.0 | 7.0 | 0.00 | 0.00 | 0.00 | 83 | 1013.7 |
| 20260901130600 | 78 | 232 | 1.0 | 6.0 | 0.00 | 0.00 | 0.00 | 85 | 1013.7 |
| 20260901130058 | 77 | 194 | 2.0 | 6.0 | 0.00 | 0.00 | 0.00 | 86 | 1013.6 |
| 20260901125557 | 76 | 169 | 1.0 | 4.0 | 0.00 | 0.00 | 0.00 | 88 | 1013.6 |
| 20260901125058 | 75 | 166 | 0.0 | 4.0 | 0.00 | 0.00 | 0.00 | 90 | 1013.6 |
| 20260901124556 | 75 | 186 | 2.0 | 4.0 | 0.00 | 0.00 | 0.00 | 90 | 1013.5 |
| 20260901124057 | 74 | 159 | 1.0 | 4.0 | 0.00 | 0.00 | 0.00 | 91 | 1013.6 |
| 20260901123555 | 73 | 153 | 1.0 | 3.0 | 0.00 | 0.00 | 0.00 | 93 | 1013.6 |
| 20260901123055 | 73 | 183 | 1.0 | 3.0 | 0.00 | 0.00 | 0.00 | 94 | 1013.5 |
| 20260901122554 | 72 | 183 | 1.0 | 3.0 | 0.00 | 0.00 | 0.00 | 94 | 1013.6 |
| 20260901122058 | 71 | 183 | 1.0 | 3.0 | 0.00 | 0.00 | 0.00 | 93 | 1013.6 |
| 20260901121556 | 71 | 183 | 1.0 | 3.0 | 0.00 | 0.00 | 0.00 | 93 | 1013.5 |
| 20260901121055 | 71 | 183 | 1.0 | 3.0 | 0.00 | 0.00 | 0.00 | 93 | 1013.6 |
| 20260901120553 | 71 | 183 | 1.0 | 3.0 | 0.00 | 0.00 | 0.00 | 93 | 1013.5 |
| 20260901120116 | 71 | 183 | 0.0 | 2.0 | 0.00 | 0.00 | 0.00 | 93 | 1013.4 |
| 20260901115555 | 71 | 183 | 1.0 | 2.0 | 0.00 | 0.01 | 0.00 | 93 | 1013.4 |
| 20260901115051 | 71 | 183 | 1.0 | 2.0 | 0.00 | 0.01 | 0.00 | 93 | 1013.4 |
| 20260901114551 | 71 | 183 | 0.0 | 2.0 | 0.00 | 0.01 | 0.00 | 93 | 1013.3 |
| 20260901114050 | 71 | 183 | 0.0 | 3.0 | 0.00 | 0.01 | 0.00 | 93 | 1013.2 |
| 20260901113550 | 71 | 183 | 0.0 | 3.0 | 0.00 | 0.01 | 0.00 | 93 | 1013.2 |
| 20260901113057 | 71 | 183 | 0.0 | 3.0 | 0.00 | 0.01 | 0.00 | 93 | 1013.0 |
| 20260901112553 | 71 | 183 | 1.0 | 3.0 | 0.00 | 0.01 | 0.00 | 93 | 1013.0 |
| 20260901112049 | 71 | 183 | 0.0 | 2.0 | 0.00 | 0.01 | 0.00 | 93 | 1013.0 |
| 20260901111549 | 71 | 183 | 0.0 | 3.0 | 0.00 | 0.01 | 0.00 | 93 | 1012.9 |
| 20260901111048 | 71 | 183 | 2.0 | 3.0 | 0.00 | 0.01 | 0.00 | 93 | 1012.8 |
| 20260901110548 | 71 | 183 | 1.0 | 3.0 | 0.00 | 0.01 | 0.00 | 93 | 1012.8 |
| 20260901110055 | 71 | 183 | 1.0 | 3.0 | 0.00 | 0.01 | 0.00 | 92 | 1012.9 |
| 20260901105547 | 71 | 183 | 0.0 | 3.0 | 0.00 | 0.01 | 0.00 | 92 | 1012.9 |
| 20260901105047 | 71 | 183 | 1.0 | 3.0 | 0.00 | 0.01 | 0.00 | 93 | 1012.8 |
| 20260901104551 | 71 | 183 | 1.0 | 3.0 | 0.00 | 0.01 | 0.00 | 93 | 1012.9 |
| 20260901104047 | 71 | 183 | 1.0 | 2.0 | 0.00 | 0.01 | 0.00 | 93 | 1012.9 |
| 20260901103547 | 71 | 183 | 1.0 | 2.0 | 0.00 | 0.01 | 0.00 | 92 | 1012.9 |
| 20260901103046 | 71 | 183 | 0.0 | 1.0 | 0.00 | 0.01 | 0.00 | 92 | 1012.9 |
| 20260901102547 | 71 | 183 | 0.0 | 2.0 | 0.00 | 0.01 | 0.00 | 92 | 1013.0 |
| 20260901102046 | 71 | 183 | 0.0 | 2.0 | 0.00 | 0.01 | 0.00 | 92 | 1013.0 |
| 20260901101552 | 71 | 183 | 0.0 | 2.0 | 0.00 | 0.01 | 0.00 | 92 | 1012.9 |
| 20260901101048 | 71 | 183 | 0.0 | 2.0 | 0.00 | 0.01 | 0.00 | 92 | 1013.0 |
| 20260901100546 | 71 | 183 | 0.0 | 2.0 | 0.00 | 0.01 | 0.00 | 92 | 1012.9 |
| 20260901100043 | 71 | 183 | 0.0 | 3.0 | 0.00 | 0.01 | 0.00 | 92 | 1012.8 |
| 20260901095543 | 71 | 165 | 1.0 | 3.0 | 0.00 | 0.01 | 0.00 | 92 | 1012.8 |
| 20260901095044 | 71 | 169 | 1.0 | 3.0 | 0.00 | 0.01 | 0.00 | 92 | 1012.6 |
| 20260901094543 | 71 | 163 | 1.0 | 3.0 | 0.00 | 0.01 | 0.00 | 92 | 1012.7 |
| 20260901094041 | 71 | 178 | 0.0 | 2.0 | 0.00 | 0.01 | 0.00 | 91 | 1012.8 |
| 20260901093541 | 72 | 188 | 0.0 | 2.0 | 0.00 | 0.01 | 0.00 | 91 | 1012.7 |
| 20260901093049 | 72 | 186 | 0.0 | 0.0 | 0.00 | 0.01 | 0.00 | 90 | 1012.7 |
| 20260901092541 | 72 | 186 | 0.0 | 0.0 | 0.00 | 0.01 | 0.00 | 90 | 1012.7 |
| 20260901092042 | 72 | 186 | 0.0 | 0.0 | 0.00 | 0.01 | 0.00 | 90 | 1012.7 |
| 20260901091552 | 72 | 186 | 0.0 | 0.0 | 0.00 | 0.01 | 0.00 | 90 | 1012.7 |
| 20260901091037 | 73 | 186 | 0.0 | 0.0 | 0.00 | 0.01 | 0.00 | 90 | 1012.7 |
| 20260901090539 | 73 | 186 | 0.0 | 0.0 | 0.00 | 0.01 | 0.00 | 90 | 1012.7 |
| 20260901090036 | 73 | 186 | 0.0 | 0.0 | 0.00 | 0.01 | 0.00 | 89 | 1012.7 |
| 20260901085535 | 73 | 186 | 0.0 | 0.0 | 0.00 | 0.01 | 0.00 | 89 | 1012.7 |
| 20260901085037 | 73 | 186 | 0.0 | 0.0 | 0.00 | 0.01 | 0.00 | 89 | 1012.7 |
| 20260901084536 | 74 | 186 | 0.0 | 1.0 | 0.00 | 0.01 | 0.00 | 88 | 1012.7 |
| 20260901084033 | 74 | 186 | 0.0 | 2.0 | 0.00 | 0.01 | 0.00 | 88 | 1012.7 |
| 20260901083535 | 74 | 186 | 0.0 | 2.0 | 0.00 | 0.01 | 0.00 | 87 | 1012.7 |
| 20260901083032 | 74 | 186 | 0.0 | 3.0 | 0.00 | 0.01 | 0.00 | 87 | 1012.7 |
| 20260901082531 | 75 | 186 | 0.0 | 3.0 | 0.00 | 0.01 | 0.00 | 87 | 1012.7 |
| 20260901082030 | 75 | 186 | 0.0 | 4.0 | 0.00 | 0.01 | 0.00 | 87 | 1012.6 |
| 20260901081530 | 75 | 198 | 1.0 | 4.0 | 0.00 | 0.01 | 0.00 | 86 | 1012.5 |
| 20260901081030 | 75 | 204 | 0.0 | 6.0 | 0.00 | 0.01 | 0.00 | 86 | 1012.5 |
| 20260901080529 | 75 | 191 | 1.0 | 6.0 | 0.00 | 0.01 | 0.00 | 86 | 1012.4 |
| 20260901080033 | 75 | 191 | 1.0 | 6.0 | 0.00 | 0.01 | 0.00 | 86 | 1012.5 |
| 20260901075532 | 75 | 213 | 2.0 | 6.0 | 0.00 | 0.01 | 0.00 | 86 | 1012.4 |
| 20260901075033 | 75 | 217 | 1.0 | 3.0 | 0.00 | 0.01 | 0.00 | 87 | 1012.4 |
| 20260901074527 | 75 | 199 | 1.0 | 5.0 | 0.00 | 0.01 | 0.00 | 87 | 1012.3 |
| 20260901074029 | 75 | 204 | 1.0 | 5.0 | 0.00 | 0.01 | 0.00 | 87 | 1012.3 |
| 20260901073529 | 74 | 200 | 1.0 | 3.0 | 0.00 | 0.01 | 0.00 | 87 | 1012.3 |
| 20260901073027 | 75 | 198 | 1.0 | 3.0 | 0.00 | 0.01 | 0.00 | 87 | 1012.4 |
| 20260901072528 | 75 | 208 | 1.0 | 3.0 | 0.00 | 0.01 | 0.00 | 87 | 1012.3 |
| 20260901072030 | 75 | 195 | 0.0 | 3.0 | 0.00 | 0.01 | 0.00 | 86 | 1012.2 |
| 20260901071526 | 75 | 202 | 0.0 | 2.0 | 0.00 | 0.01 | 0.00 | 86 | 1012.3 |
| 20260901071025 | 75 | 179 | 0.0 | 2.0 | 0.00 | 0.01 | 0.00 | 86 | 1012.3 |
| 20260901070525 | 75 | 179 | 0.0 | 2.0 | 0.00 | 0.01 | 0.00 | 86 | 1012.2 |
| 20260901070025 | 75 | 176 | 1.0 | 5.0 | 0.00 | 0.01 | 0.00 | 86 | 1012.2 |
| 20260901065525 | 75 | 190 | 1.0 | 5.0 | 0.00 | 0.01 | 0.00 | 86 | 1012.2 |
| 20260901065025 | 75 | 186 | 1.0 | 3.0 | 0.00 | 0.01 | 0.00 | 86 | 1012.2 |
| 20260901064525 | 75 | 183 | 1.0 | 4.0 | 0.00 | 0.01 | 0.00 | 86 | 1012.1 |
| 20260901064025 | 75 | 204 | 1.0 | 4.0 | 0.00 | 0.01 | 0.00 | 86 | 1012.2 |
| 20260901063526 | 75 | 174 | 1.0 | 4.0 | 0.00 | 0.01 | 0.00 | 86 | 1012.2 |
| 20260901063024 | 75 | 189 | 1.0 | 4.0 | 0.00 | 0.01 | 0.00 | 86 | 1012.1 |
| 20260901062524 | 76 | 173 | 1.0 | 4.0 | 0.00 | 0.01 | 0.00 | 85 | 1012.1 |
| 20260901062025 | 75 | 197 | 2.0 | 5.0 | 0.00 | 0.01 | 0.00 | 86 | 1012.1 |
| 20260901061523 | 75 | 179 | 2.0 | 5.0 | 0.00 | 0.01 | 0.00 | 86 | 1012.2 |
| 20260901061023 | 75 | 188 | 2.0 | 5.0 | 0.00 | 0.01 | 0.00 | 87 | 1012.2 |
| 20260901060523 | 75 | 178 | 1.0 | 3.0 | 0.00 | 0.01 | 0.00 | 87 | 1012.1 |
| 20260901060023 | 74 | 200 | 1.0 | 5.0 | 0.00 | 0.01 | 0.00 | 88 | 1012.2 |
| 20260901055525 | 74 | 194 | 0.0 | 5.0 | 0.00 | 0.01 | 0.00 | 88 | 1012.2 |
| 20260901055024 | 74 | 169 | 0.0 | 1.0 | 0.00 | 0.01 | 0.00 | 88 | 1012.2 |
| 20260901054521 | 74 | 169 | 0.0 | 0.0 | 0.00 | 0.01 | 0.00 | 88 | 1012.2 |
| 20260901054020 | 74 | 169 | 0.0 | 3.0 | 0.00 | 0.01 | 0.00 | 88 | 1012.2 |
| 20260901053520 | 75 | 169 | 0.0 | 3.0 | 0.00 | 0.01 | 0.00 | 88 | 1012.2 |
| 20260901053019 | 75 | 169 | 1.0 | 3.0 | 0.00 | 0.01 | 0.00 | 88 | 1012.2 |
| 20260901052518 | 75 | 169 | 1.0 | 3.0 | 0.00 | 0.01 | 0.00 | 88 | 1012.2 |
| 20260901052021 | 75 | 169 | 0.0 | 2.0 | 0.00 | 0.01 | 0.00 | 88 | 1012.2 |
| 20260901051518 | 75 | 169 | 0.0 | 3.0 | 0.00 | 0.01 | 0.00 | 87 | 1012.3 |
| 20260901051017 | 75 | 161 | 1.0 | 3.0 | 0.00 | 0.01 | 0.00 | 87 | 1012.2 |
| 20260901050517 | 75 | 169 | 2.0 | 4.0 | 0.00 | 0.01 | 0.00 | 87 | 1012.2 |
| 20260901050016 | 75 | 160 | 1.0 | 5.0 | 0.00 | 0.01 | 0.00 | 87 | 1012.2 |
| 20260901045515 | 75 | 151 | 2.0 | 5.0 | 0.00 | 0.01 | 0.01 | 87 | 1012.2 |
| 20260901045017 | 75 | 155 | 2.0 | 5.0 | 0.00 | 0.01 | 0.01 | 87 | 1012.2 |
| 20260901044515 | 75 | 175 | 2.0 | 5.0 | 0.00 | 0.01 | 0.01 | 88 | 1012.2 |
| 20260901044015 | 75 | 165 | 2.0 | 5.0 | 0.00 | 0.01 | 0.01 | 88 | 1012.2 |
| 20260901043515 | 75 | 163 | 2.0 | 5.0 | 0.00 | 0.01 | 0.01 | 88 | 1012.2 |
| 20260901043018 | 75 | 157 | 2.0 | 5.0 | 0.00 | 0.01 | 0.01 | 89 | 1012.2 |
| 20260901042516 | 75 | 164 | 1.0 | 3.0 | 0.00 | 0.01 | 0.01 | 89 | 1012.2 |
| 20260901042014 | 75 | 164 | 1.0 | 3.0 | 0.00 | 0.01 | 0.01 | 89 | 1012.2 |
| 20260901041515 | 75 | 164 | 0.0 | 1.0 | 0.00 | 0.01 | 0.01 | 89 | 1012.2 |
| 20260901041014 | 75 | 164 | 0.0 | 0.0 | 0.00 | 0.01 | 0.01 | 88 | 1012.1 |
| 20260901040514 | 75 | 164 | 0.0 | 1.0 | 0.00 | 0.01 | 0.01 | 88 | 1012.2 |
| 20260901040014 | 75 | 164 | 0.0 | 1.0 | 0.00 | 0.01 | 0.01 | 88 | 1012.2 |
| 20260901035513 | 75 | 164 | 0.0 | 0.0 | 0.00 | 0.01 | 0.01 | 88 | 1012.2 |
| 20260901035015 | 75 | 164 | 0.0 | 0.0 | 0.00 | 0.01 | 0.01 | 88 | 1012.2 |
| 20260901034513 | 76 | 164 | 0.0 | 0.0 | 0.00 | 0.01 | 0.01 | 88 | 1012.1 |
| 20260901034016 | 76 | 164 | 0.0 | 0.0 | 0.00 | 0.01 | 0.01 | 88 | 1012.2 |
| 20260901033514 | 76 | 164 | 0.0 | 1.0 | 0.00 | 0.01 | 0.01 | 88 | 1012.2 |
| 20260901033013 | 76 | 164 | 0.0 | 1.0 | 0.00 | 0.01 | 0.01 | 87 | 1012.2 |
| 20260901032514 | 76 | 164 | 0.0 | 1.0 | 0.00 | 0.01 | 0.01 | 87 | 1012.3 |
| 20260901032013 | 76 | 164 | 0.0 | 0.0 | 0.00 | 0.01 | 0.01 | 87 | 1012.4 |
| 20260901031525 | 77 | 164 | 0.0 | 1.0 | 0.00 | 0.01 | 0.01 | 87 | 1012.4 |
| 20260901031015 | 77 | 164 | 0.0 | 1.0 | 0.00 | 0.01 | 0.01 | 86 | 1012.4 |
| 20260901030512 | 77 | 164 | 0.0 | 1.0 | 0.00 | 0.01 | 0.01 | 86 | 1012.4 |
| 20260901030012 | 77 | 164 | 0.0 | 1.0 | 0.00 | 0.01 | 0.01 | 85 | 1012.5 |
| 20260901025522 | 78 | 164 | 0.0 | 1.0 | 0.00 | 0.01 | 0.01 | 85 | 1012.5 |
| 20260901025016 | 78 | 164 | 0.0 | 1.0 | 0.00 | 0.01 | 0.01 | 84 | 1012.5 |
| 20260901024512 | 78 | 164 | 0.0 | 1.0 | 0.00 | 0.01 | 0.01 | 84 | 1012.4 |
| 20260901024011 | 79 | 164 | 0.0 | 3.0 | 0.00 | 0.01 | 0.01 | 83 | 1012.4 |
| 20260901023511 | 79 | 164 | 0.0 | 4.0 | 0.00 | 0.01 | 0.01 | 83 | 1012.3 |
| 20260901023021 | 79 | 152 | 1.0 | 5.0 | 0.00 | 0.01 | 0.01 | 82 | 1012.4 |
| 20260901022514 | 79 | 158 | 2.0 | 5.0 | 0.00 | 0.01 | 0.01 | 82 | 1012.4 |
| 20260901022010 | 79 | 169 | 1.0 | 4.0 | 0.00 | 0.01 | 0.01 | 82 | 1012.4 |
| 20260901021516 | 79 | 148 | 0.0 | 3.0 | 0.00 | 0.01 | 0.01 | 83 | 1012.4 |
| 20260901021012 | 80 | 150 | 0.0 | 3.0 | 0.00 | 0.01 | 0.01 | 82 | 1012.4 |
| 20260901020510 | 80 | 130 | 0.0 | 6.0 | 0.00 | 0.01 | 0.01 | 82 | 1012.4 |
| 20260901020025 | 81 | 130 | 2.0 | 6.0 | 0.00 | 0.01 | 0.01 | 81 | 1012.3 |
| 20260901015509 | 81 | 130 | 2.0 | 4.0 | 0.00 | 0.01 | 0.01 | 81 | 1012.4 |
| 20260901015010 | 81 | 147 | 2.0 | 6.0 | 0.00 | 0.01 | 0.01 | 80 | 1012.4 |
| 20260901014511 | 81 | 130 | 3.0 | 6.0 | 0.00 | 0.01 | 0.01 | 80 | 1012.4 |
| 20260901014009 | 81 | 122 | 3.0 | 7.0 | 0.00 | 0.01 | 0.01 | 80 | 1012.4 |
| 20260901013514 | 82 | 134 | 2.0 | 7.0 | 0.00 | 0.01 | 0.01 | 80 | 1012.3 |
| 20260901013023 | 82 | 122 | 3.0 | 6.0 | 0.00 | 0.01 | 0.01 | 79 | 1012.3 |
| 20260901012510 | 82 | 130 | 3.0 | 6.0 | 0.00 | 0.01 | 0.01 | 79 | 1012.3 |
| 20260901012009 | 82 | 121 | 3.0 | 7.0 | 0.00 | 0.01 | 0.01 | 79 | 1012.3 |
| 20260901011514 | 82 | 134 | 3.0 | 7.0 | 0.00 | 0.01 | 0.01 | 79 | 1012.2 |
| 20260901011012 | 82 | 125 | 2.0 | 4.0 | 0.00 | 0.01 | 0.01 | 79 | 1012.2 |
| 20260901010508 | 82 | 131 | 3.0 | 4.0 | 0.00 | 0.01 | 0.01 | 79 | 1012.1 |
| 20260901010008 | 81 | 123 | 2.0 | 4.0 | 0.00 | 0.01 | 0.01 | 80 | 1012.1 |
| 20260901005508 | 81 | 123 | 2.0 | 4.0 | 0.00 | 0.01 | 0.01 | 80 | 1012.2 |
| 20260901005109 | 82 | 123 | 1.0 | 3.0 | 0.00 | 0.01 | 0.01 | 80 | 1012.0 |
| 20260901004506 | 82 | 123 | 1.0 | 4.0 | 0.00 | 0.01 | 0.01 | 80 | 1012.0 |
| 20260901004006 | 83 | 123 | 2.0 | 5.0 | 0.00 | 0.01 | 0.01 | 78 | 1012.0 |
| 20260901003506 | 84 | 115 | 2.0 | 5.0 | 0.00 | 0.01 | 0.01 | 77 | 1012.0 |
| 20260901003008 | 84 | 114 | 2.0 | 4.0 | 0.00 | 0.01 | 0.01 | 76 | 1012.1 |
| 20260901002507 | 84 | 115 | 1.0 | 3.0 | 0.00 | 0.01 | 0.01 | 76 | 1012.2 |
| 20260901002007 | 84 | 183 | 0.0 | 1.0 | 0.00 | 0.01 | 0.01 | 78 | 1012.3 |
| 20260901001511 | 84 | 183 | 0.0 | 1.0 | 0.00 | 0.01 | 0.01 | 77 | 1012.3 |
| 20260901001006 | 84 | 183 | 0.0 | 1.0 | 0.00 | 0.01 | 0.01 | 78 | 1012.3 |
| 20260901000506 | 85 | 183 | 0.0 | 0.0 | 0.00 | 0.01 | 0.01 | 79 | 1012.4 |
| 20260901000008 | 85 | 183 | 0.0 | 1.0 | 0.00 | 0.01 | 0.01 | 77 | 1012.2 |
| 20260831235505 | 85 | 183 | 0.0 | 1.0 | 0.00 | 0.01 | 0.01 | 77 | 1012.1 |
| 20260831235006 | 85 | 183 | 0.0 | 2.0 | 0.00 | 0.01 | 0.01 | 78 | 1012.0 |
| 20260831234507 | 85 | 183 | 0.0 | 2.0 | 0.00 | 0.01 | 0.01 | 77 | 1011.8 |